When you browse on this site, cookies collect data to enhance your experience and personalize the content and advertising you see.
Visit our Privacy Policy to learn more. By continuing to use the site, you agree to this use of cookies and data.
  • In Österreich
  • Länderverzeichnis
  • Für 7 Tage
  • Wassertemperatur
  • Satellitenkarten
  • Wetterkarte
  • News
  • Widgets
  • user-avatar
    Anmelden

    Stündliche Wetter Corsicana

    Heute, 21 April, Sonntag

    Zeit Temperatur Niederschläge Wind Luftdruck Luftfeuchtigkeit
    00:00 +14°C° 0 mm 4 m/S 749 mmHg 81%
    01:00 +14°C° 0 mm 4 m/S 749 mmHg 81%
    02:00 +14°C° 0 mm 4 m/S 749 mmHg 81%
    03:00 +14°C° 0 mm 5 m/S 749 mmHg 82%
    04:00 +13°C° 0 mm 5 m/S 749 mmHg 84%
    05:00 +13°C° 0 mm 5 m/S 749 mmHg 86%
    06:00 +13°C° 0 mm 5 m/S 749 mmHg 88%
    07:00 +15°C° 0 mm 5 m/S 749 mmHg 84%
    08:00 +17°C° 0 mm 6 m/S 750 mmHg 79%
    09:00 +20°C° 0 mm 7 m/S 750 mmHg 75%
    10:00 +22°C° 0 mm 7 m/S 750 mmHg 73%
    11:00 +23°C° 0 mm 8 m/S 750 mmHg 70%
    12:00 +26°C° 0 mm 8 m/S 750 mmHg 68%
    13:00 +27°C° 0 mm 8 m/S 749 mmHg 67%
    14:00 +27°C° 0 mm 8 m/S 749 mmHg 67%
    15:00 +28°C° 0 mm 9 m/S 748 mmHg 67%
    16:00 +27°C° 0 mm 8 m/S 748 mmHg 71%
    17:00 +26°C° 0 mm 7 m/S 748 mmHg 75%
    18:00 +26°C° 0 mm 6 m/S 748 mmHg 78%
    19:00 +24°C° 0 mm 6 m/S 748 mmHg 78%
    20:00 +22°C° 0 mm 7 m/S 749 mmHg 77%
    21:00 +21°C° 0 mm 7 m/S 749 mmHg 77%
    22:00 +21°C° 0 mm 7 m/S 749 mmHg 78%
    23:00 +20°C° 0 mm 8 m/S 750 mmHg 79%

    Morgen, 22 April, Montag

    Zeit Temperatur Niederschläge Wind Luftdruck Luftfeuchtigkeit
    00:00 +18°C° 0 mm 8 m/S 750 mmHg 80%
    01:00 +18°C° 0 mm 7 m/S 750 mmHg 83%
    02:00 +17°C° 0 mm 7 m/S 749 mmHg 86%
    03:00 +17°C° 0 mm 6 m/S 749 mmHg 88%
    04:00 +16°C° 0 mm 6 m/S 749 mmHg 91%
    05:00 +16°C° 0 mm 5 m/S 750 mmHg 93%
    06:00 +16°C° 0 mm 5 m/S 750 mmHg 95%
    07:00 +17°C° 0 mm 5 m/S 750 mmHg 91%
    08:00 +20°C° 0 mm 6 m/S 751 mmHg 86%
    09:00 +21°C° 0 mm 7 m/S 751 mmHg 82%
    10:00 +23°C° 0 mm 6 m/S 751 mmHg 78%
    11:00 +24°C° 0 mm 6 m/S 751 mmHg 74%
    12:00 +27°C° 0 mm 6 m/S 751 mmHg 70%
    13:00 +27°C° 0 mm 6 m/S 750 mmHg 69%
    14:00 +28°C° 0 mm 6 m/S 750 mmHg 67%
    15:00 +29°C° 0 mm 6 m/S 749 mmHg 66%
    16:00 +28°C° 0 mm 5 m/S 749 mmHg 70%
    17:00 +27°C° 0 mm 5 m/S 749 mmHg 74%
    18:00 +27°C° 0 mm 4 m/S 749 mmHg 78%
    19:00 +25°C° 0 mm 4 m/S 749 mmHg 79%
    20:00 +23°C° 0 mm 4 m/S 750 mmHg 80%
    21:00 +22°C° 0 mm 5 m/S 750 mmHg 81%
    22:00 +22°C° 0 mm 5 m/S 750 mmHg 80%
    23:00 +21°C° 0 mm 6 m/S 750 mmHg 80%

    übermorgen, 23 April, Dienstag

    Zeit Temperatur Niederschläge Wind Luftdruck Luftfeuchtigkeit
    00:00 +21°C° 0 mm 6 m/S 750 mmHg 80%
    01:00 +21°C° 0 mm 6 m/S 749 mmHg 83%
    02:00 +20°C° 0 mm 5 m/S 749 mmHg 86%
    03:00 +20°C° 0 mm 5 m/S 749 mmHg 89%
    04:00 +20°C° 0 mm 5 m/S 749 mmHg 89%
    05:00 +20°C° 0 mm 4 m/S 749 mmHg 89%
    06:00 +20°C° 0 mm 4 m/S 750 mmHg 89%
    07:00 +20°C° 0 mm 4 m/S 750 mmHg 89%
    08:00 +21°C° 0 mm 4 m/S 751 mmHg 89%
    09:00 +21°C° 0 mm 3 m/S 751 mmHg 89%
    10:00 +22°C° 0.1 mm 4 m/S 751 mmHg 86%
    11:00 +23°C° 0.1 mm 5 m/S 751 mmHg 83%
    12:00 +24°C° 0.1 mm 6 m/S 751 mmHg 80%
    13:00 +26°C° 0.1 mm 6 m/S 750 mmHg 79%
    14:00 +26°C° 0.1 mm 6 m/S 749 mmHg 78%
    15:00 +26°C° 0.1 mm 6 m/S 749 mmHg 77%
    16:00 +26°C° 0 mm 6 m/S 748 mmHg 78%
    17:00 +26°C° 0 mm 5 m/S 748 mmHg 80%
    18:00 +25°C° 0 mm 5 m/S 748 mmHg 82%
    19:00 +23°C° 0 mm 5 m/S 748 mmHg 86%
    20:00 +22°C° 0 mm 4 m/S 748 mmHg 90%
    21:00 +21°C° 0 mm 4 m/S 749 mmHg 94%
    22:00 +20°C° 0 mm 4 m/S 749 mmHg 93%
    23:00 +20°C° 0 mm 4 m/S 749 mmHg 93%

    24 April, Mittwoch

    Zeit Temperatur Niederschläge Wind Luftdruck Luftfeuchtigkeit
    00:00 +20°C° 0 mm 5 m/S 750 mmHg 92%
    01:00 +20°C° 0 mm 4 m/S 749 mmHg 91%
    02:00 +20°C° 0 mm 4 m/S 749 mmHg 91%
    03:00 +20°C° 0 mm 3 m/S 749 mmHg 90%
    04:00 +20°C° 0 mm 4 m/S 749 mmHg 91%
    05:00 +20°C° 0 mm 4 m/S 749 mmHg 91%
    06:00 +19°C° 0 mm 4 m/S 749 mmHg 92%
    07:00 +20°C° 0 mm 3 m/S 749 mmHg 89%
    08:00 +21°C° 0 mm 3 m/S 749 mmHg 86%
    09:00 +22°C° 0 mm 3 m/S 750 mmHg 84%
    10:00 +24°C° 1 mm 3 m/S 749 mmHg 84%
    11:00 +24°C° 1 mm 3 m/S 748 mmHg 84%
    12:00 +24°C° 1 mm 3 m/S 748 mmHg 84%
    13:00 +22°C° 7.1 mm 3 m/S 747 mmHg 86%
    14:00 +20°C° 7.1 mm 4 m/S 746 mmHg 89%
    15:00 +19°C° 7.1 mm 5 m/S 745 mmHg 92%
    16:00 +19°C° 8.1 mm 4 m/S 745 mmHg 93%
    17:00 +20°C° 8.1 mm 4 m/S 745 mmHg 94%
    18:00 +20°C° 8.1 mm 3 m/S 745 mmHg 96%
    19:00 +19°C° 7.1 mm 3 m/S 745 mmHg 96%
    20:00 +18°C° 7.1 mm 3 m/S 745 mmHg 96%
    21:00 +18°C° 7.1 mm 3 m/S 745 mmHg 96%
    22:00 +17°C° 1.1 mm 3 m/S 745 mmHg 95%
    23:00 +17°C° 1.1 mm 3 m/S 745 mmHg 95%

    25 April, Donnerstag

    Zeit Temperatur Niederschläge Wind Luftdruck Luftfeuchtigkeit
    00:00 +17°C° 1.1 mm 3 m/S 745 mmHg 95%
    01:00 +16°C° 0.1 mm 3 m/S 744 mmHg 94%
    02:00 +16°C° 0.1 mm 3 m/S 744 mmHg 94%
    03:00 +14°C° 0.1 mm 3 m/S 743 mmHg 94%
    04:00 +14°C° 0 mm 3 m/S 744 mmHg 94%
    05:00 +14°C° 0 mm 3 m/S 744 mmHg 94%
    06:00 +14°C° 0 mm 3 m/S 744 mmHg 94%
    07:00 +15°C° 0.1 mm 5 m/S 744 mmHg 91%
    08:00 +17°C° 0.1 mm 7 m/S 745 mmHg 88%
    09:00 +18°C° 0.1 mm 8 m/S 745 mmHg 84%
    10:00 +18°C° 0.3 mm 8 m/S 745 mmHg 86%
    11:00 +17°C° 0.3 mm 8 m/S 745 mmHg 87%
    12:00 +16°C° 0.3 mm 9 m/S 745 mmHg 89%
    13:00 +17°C° 0.1 mm 8 m/S 745 mmHg 88%
    14:00 +17°C° 0.1 mm 8 m/S 745 mmHg 87%
    15:00 +17°C° 0.1 mm 7 m/S 745 mmHg 87%
    16:00 +18°C° 0 mm 7 m/S 745 mmHg 85%
    17:00 +20°C° 0 mm 6 m/S 746 mmHg 84%
    18:00 +21°C° 0 mm 6 m/S 746 mmHg 83%
    19:00 +20°C° 0 mm 5 m/S 747 mmHg 84%
    20:00 +19°C° 0 mm 5 m/S 747 mmHg 85%
    21:00 +19°C° 0 mm 5 m/S 748 mmHg 86%
    22:00 +17°C° 0 mm 5 m/S 748 mmHg 88%
    23:00 +17°C° 0 mm 5 m/S 748 mmHg 89%

    26 April, Freitag

    Zeit Temperatur Niederschläge Wind Luftdruck Luftfeuchtigkeit
    00:00 +17°C° 0 mm 5 m/S 749 mmHg 91%
    01:00 +16°C° 0 mm 5 m/S 749 mmHg 92%
    02:00 +16°C° 0 mm 5 m/S 749 mmHg 93%
    03:00 +16°C° 0 mm 5 m/S 749 mmHg 94%
    04:00 +16°C° 0 mm 5 m/S 749 mmHg 95%
    05:00 +15°C° 0 mm 5 m/S 750 mmHg 95%
    06:00 +15°C° 0 mm 5 m/S 750 mmHg 96%
    07:00 +17°C° 0 mm 5 m/S 751 mmHg 91%
    08:00 +19°C° 0 mm 5 m/S 751 mmHg 87%
    09:00 +21°C° 0 mm 6 m/S 752 mmHg 82%
    10:00 +22°C° 0 mm 6 m/S 752 mmHg 78%
    11:00 +23°C° 0 mm 6 m/S 752 mmHg 74%
    12:00 +26°C° 0 mm 6 m/S 752 mmHg 70%
    13:00 +26°C° 0 mm 5 m/S 752 mmHg 70%
    14:00 +26°C° 0 mm 5 m/S 751 mmHg 69%
    15:00 +27°C° 0 mm 5 m/S 751 mmHg 68%
    16:00 +27°C° 0 mm 4 m/S 751 mmHg 72%
    17:00 +26°C° 0 mm 3 m/S 751 mmHg 76%
    18:00 +26°C° 0 mm 3 m/S 751 mmHg 79%
    19:00 +24°C° 0 mm 2 m/S 752 mmHg 82%
    20:00 +23°C° 0 mm 2 m/S 752 mmHg 85%
    21:00 +20°C° 0 mm 2 m/S 752 mmHg 87%
    22:00 +21°C° 0 mm 1 m/S 752 mmHg 88%
    23:00 +20°C° 0 mm 1 m/S 752 mmHg 88%
    Mehr zeigen